Temp
62 62 62 62 62 62 62 62 62 62 62 62 62 62 62 62 62 66 71 79 77 73 75 79 79 78 77 73 78 75 62 57 64 66 69 77 75 85 88 83 85 85 80 83 84
61 61 61 61 61 61 61 61 62 62 62 62 62 62 62 62 58 67 80 76 76 75 77 76 74 76 72 72 75 69 60 65 73 73 72 75 78 83 81 79 78 79 84 86 85
61 61 61 61 61 61 61 61 61 62 62 62 62 61 61 61 64 76 77 77 76 75 77 77 76 74 67 69 71 68 67 75 79 81 79 76 78 84 79 71 78 76 80 83 83
60 61 61 61 60 60 61 61 61 62 62 61 61 61 62 61 61 78 77 76 76 77 77 76 72 67 64 65 70 66 75 81 80 83 80 76 83 83 80 79 84 84 84 83 82
60 60 60 60 60 60 60 60 60 60 60 61 61 62 62 63 69 81 77 76 77 79 76 73 69 66 62 67 73 69 74 77 83 84 82 84 81 80 78 84 86 86 85 83 82
59 59 59 59 59 59 59 59 59 59 60 61 62 62 62 59 81 79 79 77 78 75 72 72 71 72 70 67 68 74 75 76 75 80 81 79 80 81 81 86 84 84 82 83 82
58 58 59 59 59 59 59 58 58 59 59 61 62 65 60 67 82 78 76 75 80 82 78 80 80 74 71 70 70 74 71 74 76 73 82 83 75 77 84 85 82 83 84 84 82
58 58 58 58 59 59 59 58 58 59 60 61 63 61 59 77 75 77 77 80 83 83 83 86 81 73 70 72 73 68 65 60 72 76 82 79 66 79 85 82 81 82 84 83 81
58 57 58 58 58 58 58 57 58 60 61 62 57 57 61 79 78 82 83 84 84 84 84 95 80 70 73 63 59 60 55 57 68 74 75 73 66 80 85 83 81 82 83 83 82
58 57 57 57 58 57 57 57 59 60 63 71 72 59 67 75 83 87 86 87 82 79 78 74 68 63 60 58 51 56 54 57 63 74 72 66 71 81 83 83 82 82 82 82 82
57 57 57 57 57 57 54 56 61 61 62 61 66 66 75 80 88 86 87 84 80 74 64 66 61 57 61 62 64 64 60 61 67 75 70 69 73 79 82 82 81 80 81 81 81
57 57 57 57 57 56 53 62 64 66 56 69 72 73 78 79 73 80 88 75 71 65 66 61 57 67 69 68 67 64 62 64 70 75 72 70 72 79 76 79 81 80 81 82 78
56 56 56 57 56 58 59 64 70 67 53 64 69 70 72 76 72 75 80 75 68 63 63 58 65 73 71 67 66 64 60 65 65 72 72 70 64 71 75 77 81 81 83 82 80
56 56 56 56 58 56 62 71 71 65 47 64 66 72 74 75 70 83 83 78 68 65 63 61 71 71 68 67 68 58 70 72 71 63 59 66 55 61 68 72 76 75 76 77 78
56 56 56 56 50 54 66 69 70 62 43 70 68 79 72 69 73 75 82 74 67 68 65 61 64 66 67 69 73 67 76 70 71 63 55 61 57 63 65 65 68 70 71 71 74
56 56 55 55 51 57 62 68 62 51 46 66 73 69 65 68 71 76 74 77 75 67 66 65 73 69 69 77 77 77 71 66 60 59 49 57 59 58 60 66 67 70 71 71 70
55 55 53 59 56 62 64 58 48 44 66 61 62 68 65 64 67 69 66 64 59 52 52 63 67 70 74 66 74 69 59 51 50 48 48 61 56 62 67 71 73 69 67 68 69
54 53 54 60 57 60 57 52 43 59 58 67 66 66 62 64 64 65 63 58 62 60 53 50 51 65 74 66 64 62 62 53 45 47 53 63 55 62 69 75 72 69 67 67 66
53 53 55 60 62 58 52 43 45 55 64 62 62 56 56 62 61 60 57 59 63 61 54 51 56 72 75 75 70 64 57 64 57 55 53 57 60 65 69 68 67 66 66 63 64
47 50 54 66 65 57 47 44 52 64 67 64 51 56 49 54 54 54 55 64 63 67 66 58 52 68 72 71 73 66 69 55 52 46 44 50 52 51 59 61 63 63 62 63 64
50 49 61 66 62 51 42 46 57 67 66 60 54 53 53 52 53 52 54 63 67 66 64 58 51 57 66 62 63 59 56 55 56 52 49 47 50 57 59 60 59 62 64 64 65
47 45 63 63 49 44 44 55 57 62 64 61 59 57 53 53 50 51 53 58 67 65 57 56 50 47 57 71 71 66 61 59 52 48 50 52 52 58 60 61 62 63 64 64 66
43 47 61 60 42 42 50 57 60 58 57 57 55 57 55 50 45 53 55 64 65 63 54 54 44 40 49 59 64 61 65 61 54 53 50 48 51 57 57 59 61 60 63 66 67
44 43 50 51 49 46 46 48 51 61 59 59 56 56 51 48 51 47 52 60 62 62 61 56 46 45 44 52 58 57 67 64 58 48 55 53 51 52 53 55 55 57 61 64 70
45 44 48 40 45 44 44 49 49 50 56 56 51 52 49 41 46 46 52 54 59 61 56 50 40 47 52 58 65 65 65 65 59 61 58 57 52 53 55 55 57 61 66 70 68
43 43 46 43 46 46 44 44 48 52 50 49 47 52 51 43 47 44 48 46 49 53 49 48 43 47 43 59 67 62 68 66 66 63 61 58 48 60 59 58 58 64 66 65 64
48 50 47 43 43 41 43 47 50 51 53 55 52 49 48 52 57 56 53 52 51 47 45 45 44 41 44 64 63 54 61 64 66 66 60 52 55 60 57 58 61 64 65 62 63
MSLP
1020.12 1019.64 1019.17 1018.62 1018.36 1018.08 1017.74 1017.37 1016.65 1016.31 1015.88 1015.44 1014.81 1014.15 1013.49 1012.75 1011.46 1010.74 1009.81 1008.21 1007.97 1008.14 1008.53 1008.65 1008.74 1008.74 1008.84 1008.85 1008.76 1008.85 1010.10 1010.35 1009.87 1009.21 1007.86 1006.19 1006.47 1005.92 1005.76 1006.68 1007.37 1007.82 1008.28 1009.50 1010.61
1020.17 1019.68 1019.21 1018.66 1018.21 1017.81 1017.70 1017.15 1016.58 1016.20 1015.70 1015.27 1014.69 1013.93 1013.27 1012.83 1012.07 1010.24 1007.79 1007.70 1007.87 1008.08 1008.38 1008.54 1008.75 1008.79 1008.95 1008.73 1008.69 1009.19 1009.80 1009.26 1007.98 1007.64 1007.00 1006.04 1006.51 1006.09 1006.42 1007.09 1007.90 1008.18 1008.97 1009.72 1010.55
1020.18 1019.75 1019.23 1018.69 1018.16 1017.81 1017.53 1016.97 1016.63 1016.10 1015.70 1015.16 1014.56 1013.83 1012.88 1012.57 1011.70 1008.71 1007.59 1007.73 1007.94 1008.11 1008.30 1008.46 1008.65 1008.74 1008.89 1008.54 1008.50 1008.90 1008.78 1007.48 1006.85 1006.24 1006.01 1005.63 1005.94 1006.03 1006.31 1007.69 1007.57 1008.17 1008.95 1009.74 1010.39
1020.12 1019.60 1019.05 1018.59 1018.08 1017.48 1017.18 1017.01 1016.71 1016.09 1015.58 1015.05 1014.51 1013.84 1012.59 1012.26 1010.59 1007.79 1007.65 1007.75 1008.00 1008.12 1008.21 1008.22 1008.47 1008.58 1008.65 1008.57 1008.10 1008.38 1008.00 1006.90 1005.71 1004.99 1005.23 1005.05 1005.41 1006.10 1006.07 1006.61 1007.37 1007.94 1008.40 1009.35 1010.26
1020.08 1019.64 1019.17 1018.60 1018.15 1017.71 1017.22 1016.75 1016.36 1015.91 1015.41 1014.95 1014.53 1013.85 1012.58 1011.76 1009.43 1007.35 1007.72 1007.97 1008.08 1008.14 1008.15 1008.18 1008.21 1008.39 1008.51 1008.18 1008.00 1007.83 1007.34 1007.19 1006.14 1005.35 1004.81 1004.10 1005.06 1005.64 1006.29 1006.64 1007.42 1008.07 1008.59 1009.06 1009.78
1020.07 1019.48 1018.92 1018.40 1017.79 1017.27 1016.99 1016.47 1015.99 1015.79 1015.22 1014.87 1014.57 1014.05 1013.39 1011.27 1007.61 1007.51 1007.90 1008.11 1008.10 1008.02 1008.00 1008.10 1008.02 1008.12 1008.17 1008.11 1008.28 1007.50 1007.14 1006.32 1005.74 1005.34 1004.48 1004.36 1005.33 1005.57 1006.96 1006.88 1007.31 1007.87 1008.47 1008.93 1009.19
1020.19 1019.42 1018.81 1018.12 1017.57 1017.13 1016.57 1016.28 1015.75 1015.21 1014.89 1014.65 1014.55 1014.21 1013.38 1009.55 1007.69 1008.13 1008.10 1008.00 1007.56 1007.65 1007.74 1007.82 1007.79 1007.95 1007.91 1007.98 1007.88 1007.71 1007.42 1006.44 1005.52 1005.10 1004.34 1004.49 1005.90 1006.10 1006.41 1006.90 1007.22 1007.73 1008.16 1008.67 1008.93
1020.05 1019.42 1018.52 1017.79 1017.09 1016.41 1015.77 1015.12 1014.63 1014.42 1014.37 1014.31 1014.34 1013.95 1012.01 1008.17 1007.99 1007.97 1007.80 1007.62 1007.46 1007.34 1007.47 1007.18 1007.21 1007.53 1007.83 1007.93 1008.08 1008.31 1008.19 1007.80 1005.74 1005.33 1004.47 1004.47 1005.85 1006.06 1006.05 1006.47 1007.01 1007.40 1007.72 1008.20 1008.50
1020.11 1019.52 1018.84 1017.92 1017.17 1016.17 1014.97 1014.38 1014.00 1013.66 1013.83 1013.91 1014.04 1013.50 1010.70 1007.73 1007.68 1006.83 1007.51 1007.43 1007.04 1007.02 1007.14 1006.85 1007.20 1008.03 1008.23 1008.90 1009.58 1009.41 1008.89 1008.26 1006.82 1005.25 1005.10 1005.12 1005.42 1005.52 1005.79 1006.03 1006.47 1006.71 1007.13 1007.61 1008.21
1019.74 1019.15 1018.39 1017.58 1016.86 1016.03 1015.03 1013.73 1012.92 1012.93 1013.35 1013.24 1012.93 1012.99 1009.53 1007.76 1006.63 1006.10 1006.21 1006.63 1007.04 1006.99 1007.43 1007.62 1008.45 1008.89 1009.57 1009.94 1010.28 1009.84 1009.21 1008.23 1007.31 1005.62 1005.30 1005.42 1005.28 1005.17 1005.40 1005.60 1005.81 1006.14 1006.73 1007.20 1007.68
1019.55 1018.99 1018.05 1017.25 1016.38 1015.78 1014.96 1013.76 1013.70 1013.23 1012.93 1012.07 1011.45 1010.56 1008.86 1007.99 1006.35 1006.07 1005.96 1006.44 1006.78 1007.42 1008.10 1008.49 1009.44 1009.62 1009.61 1009.82 1009.61 1009.42 1009.14 1008.59 1007.12 1005.93 1006.09 1005.52 1005.29 1004.87 1005.12 1005.46 1005.67 1006.10 1006.49 1006.95 1007.18
1019.25 1018.62 1017.72 1016.76 1015.85 1015.19 1014.98 1014.17 1013.73 1013.67 1012.45 1011.00 1010.37 1009.98 1008.56 1009.09 1008.34 1006.34 1005.83 1006.72 1007.34 1007.98 1008.61 1009.37 1009.21 1008.72 1009.31 1009.42 1009.44 1009.27 1009.03 1008.00 1006.97 1006.06 1006.42 1005.27 1005.23 1004.71 1004.81 1004.83 1004.81 1005.54 1006.32 1006.57 1007.36
1019.12 1018.38 1017.53 1016.29 1015.13 1014.65 1014.89 1014.12 1013.12 1012.79 1012.70 1010.50 1009.47 1009.11 1008.40 1008.23 1007.95 1006.82 1006.26 1006.58 1007.44 1008.30 1008.89 1009.40 1008.58 1008.54 1008.99 1008.88 1009.11 1008.77 1008.66 1007.74 1007.39 1006.03 1005.65 1005.24 1005.10 1004.82 1004.75 1004.84 1005.33 1005.65 1005.82 1006.54 1006.90
1019.27 1018.34 1017.49 1016.21 1015.18 1015.69 1014.54 1013.35 1013.00 1013.13 1012.77 1009.89 1008.56 1007.64 1007.59 1007.62 1007.42 1006.43 1006.18 1006.79 1007.51 1008.00 1008.79 1008.97 1008.26 1008.33 1008.27 1008.14 1008.24 1008.09 1007.31 1007.10 1007.04 1007.05 1006.36 1005.89 1005.89 1005.18 1004.95 1005.10 1005.74 1006.08 1006.22 1006.56 1007.08
1019.23 1018.46 1017.79 1017.08 1017.05 1016.09 1014.40 1013.48 1012.87 1012.78 1011.64 1008.70 1007.86 1006.90 1007.24 1007.46 1007.01 1005.97 1005.88 1006.49 1007.32 1007.93 1008.69 1008.49 1007.85 1007.64 1007.52 1007.20 1007.18 1007.08 1006.52 1006.76 1006.74 1007.00 1006.82 1006.22 1006.76 1005.42 1005.51 1006.01 1006.70 1006.83 1007.04 1007.22 1008.00
1019.09 1018.39 1017.96 1017.33 1017.04 1015.24 1014.13 1013.37 1012.81 1012.69 1010.86 1008.74 1007.95 1007.90 1008.37 1007.94 1007.48 1006.49 1006.15 1006.53 1006.96 1007.92 1008.29 1008.40 1007.60 1007.34 1006.83 1006.40 1006.24 1006.09 1006.44 1006.62 1007.02 1007.34 1007.54 1006.67 1007.11 1006.26 1006.25 1006.16 1007.31 1007.62 1008.11 1008.53 1009.28
1018.66 1017.78 1017.75 1017.39 1016.24 1014.55 1014.33 1013.90 1013.43 1012.72 1010.76 1010.51 1009.87 1009.20 1008.92 1008.81 1008.22 1007.44 1007.14 1007.14 1007.85 1008.50 1008.95 1008.45 1007.62 1007.08 1006.89 1006.51 1005.97 1006.27 1006.90 1007.41 1007.56 1007.87 1007.95 1006.82 1007.04 1005.94 1005.45 1005.91 1006.42 1007.89 1009.26 1009.95 1010.49
1018.32 1017.38 1016.96 1016.27 1015.22 1015.21 1015.06 1014.54 1014.05 1013.40 1012.37 1011.38 1010.80 1010.01 1009.83 1009.82 1009.02 1008.97 1008.29 1008.41 1008.25 1008.61 1009.28 1008.95 1007.87 1006.74 1006.11 1005.86 1005.97 1006.22 1006.62 1007.40 1007.62 1007.85 1007.86 1007.16 1006.88 1006.03 1005.47 1006.01 1007.86 1009.01 1010.11 1010.92 1011.48
1018.38 1017.49 1016.96 1015.55 1014.87 1015.33 1015.60 1015.44 1014.94 1013.90 1012.90 1012.14 1011.51 1011.36 1011.38 1011.23 1011.29 1010.43 1010.23 1009.48 1009.07 1009.17 1009.43 1008.72 1007.26 1006.31 1005.53 1005.37 1005.77 1005.43 1005.91 1006.11 1007.20 1007.94 1008.02 1007.45 1007.22 1007.43 1007.47 1008.25 1009.20 1010.30 1011.37 1012.62 1013.03
1019.45 1018.64 1017.09 1015.21 1014.90 1015.55 1016.17 1016.15 1014.91 1013.81 1012.94 1012.61 1012.98 1013.06 1013.35 1012.96 1012.73 1012.38 1011.44 1010.24 1009.95 1009.91 1010.14 1009.70 1007.97 1006.39 1004.99 1005.31 1004.48 1005.13 1004.78 1006.15 1007.05 1007.91 1008.46 1008.29 1008.00 1008.82 1009.58 1010.21 1010.56 1011.29 1012.25 1013.72 1014.75
1019.41 1018.62 1016.29 1015.37 1015.52 1016.47 1017.21 1016.33 1015.05 1014.19 1013.70 1013.53 1013.72 1014.15 1014.34 1014.38 1013.96 1013.31 1012.34 1010.98 1010.53 1010.25 1010.87 1010.64 1009.60 1007.31 1006.27 1005.06 1004.68 1004.96 1004.77 1005.57 1006.45 1007.54 1008.37 1008.92 1009.44 1009.74 1009.94 1010.60 1010.93 1011.61 1012.03 1011.79 1013.36
1020.24 1019.15 1016.35 1015.99 1016.94 1017.57 1017.68 1016.70 1015.78 1014.84 1014.35 1014.27 1014.36 1014.78 1015.20 1015.39 1014.90 1014.33 1013.00 1012.64 1012.05 1012.10 1011.51 1011.62 1010.75 1009.01 1006.35 1004.45 1004.26 1004.48 1004.87 1004.29 1006.02 1007.33 1007.98 1008.83 1010.10 1010.54 1011.29 1011.08 1010.67 1011.44 1010.94 1010.80 1012.12
1021.55 1019.65 1016.89 1016.86 1018.14 1018.64 1017.91 1017.15 1016.22 1015.80 1015.55 1015.33 1015.47 1015.69 1015.91 1016.16 1015.89 1014.47 1013.77 1013.20 1013.02 1012.88 1012.63 1012.38 1012.04 1010.76 1007.31 1004.98 1003.87 1003.55 1003.58 1004.00 1004.24 1005.68 1007.54 1009.21 1010.38 1011.61 1012.26 1011.93 1011.80 1011.48 1011.31 1010.97 1012.41
1022.11 1020.70 1018.90 1018.51 1018.94 1019.20 1019.00 1018.01 1017.17 1016.40 1015.99 1015.85 1015.99 1015.98 1016.15 1016.31 1016.22 1015.00 1014.49 1013.56 1013.60 1013.66 1013.45 1013.16 1012.66 1012.02 1009.74 1005.88 1004.19 1003.05 1002.62 1002.89 1003.61 1005.52 1006.40 1007.72 1010.06 1011.66 1012.42 1012.50 1012.01 1011.95 1011.82 1011.92 1012.01
1022.39 1021.75 1020.92 1020.74 1020.12 1020.13 1019.71 1018.79 1017.98 1017.30 1016.75 1016.70 1016.59 1016.63 1016.64 1016.39 1015.98 1015.78 1014.56 1014.01 1013.76 1013.50 1013.74 1013.76 1012.77 1011.65 1009.31 1006.27 1004.49 1002.64 1002.01 1001.94 1002.94 1003.45 1005.04 1006.54 1008.09 1009.34 1010.51 1011.33 1011.31 1011.13 1011.31 1011.39 1011.90
1022.70 1022.10 1021.75 1021.43 1020.79 1020.34 1019.84 1019.22 1018.60 1018.15 1018.14 1017.53 1017.44 1017.20 1016.88 1016.47 1015.94 1015.10 1015.05 1014.44 1013.48 1013.58 1013.81 1013.79 1012.78 1011.71 1008.75 1004.41 1003.34 1002.52 1001.63 1001.61 1001.85 1002.44 1003.66 1005.34 1007.56 1008.29 1010.27 1011.16 1011.30 1010.82 1010.83 1011.52 1012.27
1022.39 1021.95 1021.85 1021.67 1021.20 1020.92 1020.11 1019.60 1019.06 1018.58 1018.01 1017.55 1017.51 1017.09 1016.53 1015.90 1015.29 1014.59 1014.17 1013.74 1013.55 1013.35 1013.51 1013.30 1012.49 1012.11 1007.36 1003.41 1002.92 1002.71 1001.25 1001.09 1001.14 1001.38 1002.52 1004.38 1005.66 1007.45 1009.59 1009.97 1010.33 1011.08 1012.05 1012.31 1012.53
Wind_Speed
14 14 14 16 14 14 15 16 17 18 19 20 21 21 22 21 21 2 5 7 3 8 5 2 3 2 2 2 3 1 5 3 5 1 7 4 2 4 7 15 1 4 7 17 18
14 15 15 16 16 16 15 16 18 18 19 20 20 22 22 20 4 5 7 5 4 8 2 4 2 2 2 3 0 5 3 10 9 9 7 4 3 5 7 8 6 10 15 14 17
14 15 16 16 18 17 16 17 18 18 18 19 20 22 24 14 4 6 6 5 3 5 2 3 2 3 2 2 3 4 6 7 8 12 12 5 4 6 16 3 14 21 20 16 12
15 16 17 18 19 19 18 17 17 19 19 18 19 22 27 2 2 2 8 6 4 4 1 2 3 3 0 3 1 2 9 11 11 4 3 1 10 10 3 8 17 20 19 16 14
16 16 17 17 17 17 18 19 19 20 19 17 17 19 9 6 9 3 9 6 4 5 2 2 3 3 2 3 6 5 6 7 14 14 9 4 7 9 7 17 18 18 16 17 14
17 18 19 18 19 19 17 17 18 17 17 16 15 17 3 4 5 7 7 6 2 3 1 3 2 2 5 3 4 5 7 10 2 9 6 2 9 7 7 18 19 19 17 16 15
18 20 20 21 21 21 20 18 19 17 17 15 12 4 1 16 3 4 2 3 4 4 3 6 4 1 2 6 1 4 8 10 7 3 7 7 5 14 18 19 20 19 17 15 14
19 20 22 23 23 23 22 21 21 21 18 13 5 1 9 6 3 6 3 8 7 5 4 8 2 0 3 2 9 5 4 5 9 5 7 6 6 11 21 21 19 19 17 14 13
18 19 21 23 23 24 25 25 23 16 10 6 2 2 11 11 3 9 8 6 5 4 6 5 4 1 7 4 6 6 3 4 11 4 3 5 2 20 18 19 19 19 18 15 14
21 21 22 23 23 23 24 24 10 6 3 5 4 2 5 3 5 4 7 5 5 1 3 1 6 2 4 5 6 6 3 4 6 9 2 1 7 20 17 18 20 17 16 15 16
21 22 24 24 24 22 13 5 7 6 2 7 4 6 3 8 6 4 5 5 2 2 5 2 4 8 11 7 5 5 4 7 7 9 2 7 10 18 19 17 15 14 14 15 17
24 23 25 25 25 24 2 5 1 6 9 10 16 17 19 9 7 8 7 5 4 5 2 2 9 12 7 7 7 7 8 15 14 13 8 7 14 15 11 16 20 18 15 16 8
24 24 25 27 29 4 4 3 8 6 2 8 6 6 7 9 7 7 7 7 4 5 6 8 10 6 8 9 7 8 8 15 12 9 4 7 4 8 4 6 12 11 16 12 16
22 24 24 30 6 6 5 11 12 0 4 4 3 6 4 6 5 8 6 6 2 8 4 7 10 11 9 10 7 8 8 13 11 3 8 4 6 2 6 10 11 7 8 10 9
21 21 20 16 4 4 7 12 11 5 6 3 2 0 2 7 2 2 4 3 8 7 6 9 3 8 12 15 6 13 12 11 12 6 0 5 4 7 5 6 7 7 7 7 12
21 20 17 2 3 8 9 15 4 5 5 9 7 5 4 5 5 5 2 4 4 4 4 8 6 4 7 13 9 10 6 5 4 4 1 7 7 7 5 9 7 6 12 17 17
24 23 8 1 5 6 11 5 6 7 8 9 7 7 4 2 5 3 3 5 6 1 5 9 11 7 5 9 13 3 5 5 5 2 6 6 4 9 6 7 15 18 15 13 14
27 23 3 5 7 6 5 6 10 4 6 4 8 8 5 11 5 9 5 4 5 5 2 2 10 5 8 8 11 8 10 7 7 3 3 2 6 7 8 14 18 18 16 14 14
20 5 5 6 6 3 6 7 3 5 10 8 6 6 7 8 8 10 7 5 4 3 7 7 11 12 18 10 8 11 6 9 6 3 1 3 2 9 12 17 19 18 18 14 10
3 4 5 6 4 6 6 1 3 4 7 6 6 5 6 8 9 11 6 4 12 4 11 7 14 10 16 2 13 10 5 3 3 8 5 5 2 6 11 13 15 16 17 12 9
3 5 5 6 5 6 4 4 4 11 11 6 2 3 4 7 5 7 7 11 5 21 7 5 3 9 8 10 16 6 3 3 6 6 6 3 4 3 13 14 18 15 14 17 14
3 3 5 5 5 2 1 5 9 8 8 6 6 7 3 7 6 5 6 7 18 15 17 4 5 6 16 21 8 7 8 10 7 7 3 6 6 3 10 15 19 18 18 17 17
3 3 5 6 3 4 6 4 4 10 7 5 4 4 3 3 6 5 9 13 17 15 2 6 4 6 15 9 5 7 9 5 6 6 8 7 7 5 5 13 16 17 14 13 11
3 4 5 5 1 3 6 4 6 8 6 3 5 4 5 6 4 8 17 9 14 14 5 1 4 8 13 13 4 5 15 12 8 6 7 7 10 14 12 11 7 7 9 9 14
1 2 2 4 4 4 3 3 4 5 2 6 4 5 5 4 7 7 14 10 15 13 3 2 6 5 21 32 22 12 7 13 9 13 10 9 16 25 20 14 14 11 11 14 16
1 3 5 3 4 5 3 3 4 6 8 8 6 13 12 6 8 16 6 6 8 4 5 4 5 10 28 22 21 13 18 10 12 8 4 12 1 13 15 10 9 14 16 17 17
3 3 4 4 4 2 4 4 8 6 7 6 15 15 14 14 14 15 11 15 12 8 8 5 2 8 11 13 13 13 7 5 8 7 13 9 10 23 15 17 18 12 11 15 19
Wind_Direction
341 334 327 323 329 327 326 321 326 326 330 328 329 332 328 328 320 175 257 220 144 133 143 120 145 242 86 275 170 102 67 265 258 348 259 289 12 352 87 124 199 175 117 145 153
342 338 331 326 327 328 327 324 323 322 324 327 330 330 323 330 316 276 252 147 130 149 126 99 76 44 347 241 39 103 147 215 209 199 227 255 126 167 103 109 71 87 122 142 146
343 338 333 331 328 325 330 328 320 319 320 326 331 328 318 325 336 252 162 150 149 158 115 125 131 165 184 349 216 164 208 258 240 221 236 240 131 152 118 96 152 145 153 159 162
346 339 335 332 327 326 327 322 320 319 319 326 331 327 320 247 196 261 167 151 178 174 146 39 49 108 139 266 231 306 194 260 277 255 204 250 128 152 152 170 157 153 156 161 172
343 339 333 327 322 319 320 318 321 320 318 321 328 327 348 1 251 180 141 146 151 151 186 95 47 121 231 253 351 206 283 204 257 285 256 83 153 148 128 139 147 152 160 171 178
339 335 333 327 322 320 319 317 313 309 309 312 323 322 350 304 266 139 136 133 209 198 146 140 204 221 268 260 146 288 301 287 258 239 247 105 120 107 164 150 150 159 171 183 186
339 333 329 325 323 321 318 309 298 300 301 302 314 303 332 238 71 84 203 223 197 196 237 188 210 94 266 324 197 282 333 328 308 302 238 103 108 152 158 161 160 168 176 185 197
338 333 329 328 324 320 315 311 304 294 291 289 295 223 250 252 279 272 246 277 259 249 230 278 250 166 168 266 2 7 47 351 290 352 277 126 185 165 167 164 169 174 179 185 200
338 332 326 323 322 320 316 311 296 287 255 260 136 178 265 299 189 234 176 228 217 246 242 275 58 80 7 65 7 357 231 245 311 200 274 114 164 177 179 170 175 179 181 183 195
338 333 328 324 322 319 315 303 287 328 140 194 247 328 271 305 269 202 179 208 210 297 321 340 47 51 14 85 212 232 272 280 242 283 15 227 223 172 188 176 181 180 180 181 186
337 334 327 325 322 320 335 2 11 3 13 201 207 269 302 354 293 247 173 175 94 66 190 263 103 221 223 211 200 254 260 266 273 279 295 228 198 190 182 188 177 176 180 186 192
336 334 329 326 321 321 175 35 23 232 300 244 250 256 275 314 309 308 116 140 141 229 92 317 225 225 215 242 228 242 257 269 284 263 178 244 218 217 176 188 178 177 188 187 169
333 333 332 327 321 357 305 262 313 351 358 291 212 213 232 158 218 270 146 169 158 188 215 189 236 193 221 262 251 252 226 261 240 303 260 256 268 159 183 145 176 186 189 181 181
334 334 334 330 44 330 325 324 328 37 49 267 242 271 154 168 273 223 207 152 177 216 211 229 244 244 246 240 207 255 215 253 268 249 259 96 239 305 189 149 169 147 174 178 171
334 332 336 338 277 335 262 319 307 70 64 184 143 293 110 145 307 326 166 116 190 214 110 244 248 213 243 240 213 246 265 242 256 213 177 304 57 237 157 144 139 148 110 85 103
332 328 337 349 306 243 312 310 39 43 59 357 29 50 45 310 304 315 118 122 176 203 243 244 268 242 252 261 239 251 304 274 50 121 39 252 153 271 200 172 153 134 103 100 98
330 322 313 273 259 324 326 14 45 60 331 0 351 329 314 263 265 212 231 164 192 262 286 295 279 287 261 290 288 227 77 297 302 1 205 258 136 233 195 160 153 128 109 98 89
326 319 233 222 261 344 359 49 65 349 38 336 346 325 22 26 338 341 309 298 277 147 165 218 305 222 241 203 224 226 175 190 197 240 233 236 235 260 308 129 103 100 100 93 87
321 331 319 271 255 111 53 51 149 353 359 356 346 25 345 18 346 13 360 283 9 226 210 207 248 252 256 260 154 270 206 198 155 207 72 227 210 44 80 94 98 101 93 78 73
359 343 285 293 353 49 67 275 348 326 350 32 45 39 352 333 341 11 322 321 335 68 22 313 284 239 262 328 279 199 196 188 348 173 217 276 229 161 118 108 100 96 94 89 67
31 18 264 344 54 44 106 256 325 5 25 348 63 307 330 338 359 323 253 324 11 338 25 311 250 294 282 198 245 302 238 77 120 147 186 172 240 355 149 135 117 117 117 111 106
5 23 284 41 41 40 47 345 339 350 7 13 3 14 35 332 297 310 264 306 339 341 328 31 260 269 256 256 195 205 257 161 149 226 240 158 238 358 157 134 130 135 128 137 144
352 271 309 75 77 339 319 335 325 25 1 355 325 29 351 314 316 243 306 324 308 316 309 345 336 339 320 285 225 197 227 237 120 111 201 158 225 146 168 138 139 136 154 152 151
6 1 330 34 95 21 357 305 347 338 304 334 294 333 326 303 224 281 301 306 343 320 66 223 205 195 256 265 221 217 231 193 158 132 197 200 157 180 194 202 185 193 166 168 142
30 295 241 334 332 339 6 297 302 306 336 7 320 310 301 273 284 269 296 300 300 297 211 147 238 237 269 260 251 237 260 186 180 195 173 183 177 187 182 184 199 166 151 154 150
79 42 352 290 309 329 328 293 294 348 353 310 287 318 308 262 241 294 231 239 239 270 176 234 246 303 282 262 225 235 251 245 218 164 133 132 121 155 173 187 198 179 165 146 135
318 333 102 272 319 2 238 333 322 348 291 305 315 306 292 284 293 268 240 260 230 192 185 200 158 2 271 203 194 223 235 221 212 168 144 176 175 154 172 177 184 163 161 147 140